Orbital Elements at Epoch 2459000.5 (2020-May-31.0) TDB
Reference: JPL 17 (heliocentric ecliptic J2000)
Element | Value | Uncertainty (1-sigma) | Units |
e | .05397934372300059 | 5.8092e-08 | |
a | 2.53067536040022 | 1.5573e-08 | au |
q | 2.394071165269848 | 1.4612e-07 | au |
i | 2.739867856014365 | 4.2553e-06 | deg |
node | 124.7556361898912 | 0.00012363 | deg |
peri | 215.6778839317855 | 0.00014048 | deg |
M | 116.825406775743 | 6.8459e-05 | deg |
tp | 2458523.313791906215 (2019-Feb-08.81379191) | 0.00027943 | TDB |
period | 1470.45954861106 4.03 | 1.3573e-05 3.716e-08 | d yr |
n | .2448214235747201 | 2.2599e-09 | deg/d |
Q | 2.667279555530591 | 1.6414e-08 | au |
|
| | Orbit Determination Parameters
Additional Information
|